Retour au catalogue

USA 43

ActifMilitaireGEO
NORAD 20202·PAYLOAD·🇺🇸 United States

Lancé Sep 4, 1989 depuis Cape Canaveral Space Force Station

Loading…

TLE

FraisSource: Space-Track

Époque: Sep 14, 2026, 20:47 UTC

1 20202U 89069A   26257.86636049 -.00000077  00000-0  00000-0 0  9997
2 20202  12.8210 335.9224 0019303 273.2596  87.3571  0.98611349 26695

Suivez USA 43 en temps réel avec AllMySat

Download on the App Store